Davenport, IA

10:08 AM CST on January 23, 2018 (GMT -0600)
Davenport Municipal

Weather History for KDVN - May, 2013

Change the Weather History Date:

Sunday, May 5, 2013

  Actual Average Record
Temperature  
Mean Temperature 62 °F 57 °F  
Max Temperature 74 °F 68 °F 91 °F (1949)
Min Temperature 50 °F 46 °F 35 °F (2004)
Degree Days  
Heating Degree Days 3 9  
Month to date heating degree days 47 46  
Since 1 July heating degree days 6431 6350  
Cooling Degree Days 0 1  
Month to date cooling degree days 4 4  
Year to date cooling degree days 14 10  
Growing Degree Days 12 (Base 50)    
Moisture  
Dew Point 52 °F    
Average Humidity 72    
Maximum Humidity 100    
Minimum Humidity 44    
Precipitation  
Precipitation 0.00 in 0.12 in 0.94 in (1962)
Month to date precipitation 1.83 0.60  
Year to date precipitation 14.28 9.16  
Snow  
Snow 0.00 in - - ()
Month to date snowfall 0.0  
Since 1 July snowfall 27.1  
Snow Depth 0.00 in    
Sea Level Pressure  
Sea Level Pressure 30.02 in    
Wind  
Wind Speed 8 mph (North)    
Max Wind Speed 16 mph    
Max Gust Speed 22 mph    
Visibility 5 miles    
Events Fog    
T = Trace of Precipitation, MM = Missing Value Source: NWS Daily Summary

Daily Weather History Graph

Daily Weather History Graph

Search for Another Location

Airport or City:

Trip Planner

Search our weather history database for the weather conditions in past years. The results will help you decide how hot, cold, wet, or windy it might be!

Date:

Astronomy

May. 05, 2013 Rise Set
Actual Time 5:53 AM CDT 8:04 PM CDT
Civil Twilight 5:23 AM CDT 8:35 PM CDT
Nautical Twilight 4:45 AM CDT 9:13 PM CDT
Astronomical Twilight 4:04 AM CDT 9:55 PM CDT
Moon 3:27 AM CDT (5/5) 4:01 PM CDT (5/5)
Length of Visible Light 15h 12m
Length of Day
14h 11m
Waning Crescent, 18% of the Moon is Illuminated
May 5
Waning Crescent
May 9
New
May 17
First Quarter
May 24
Full
May 31
Last Quarter

Hourly Weather History & Observations

Time (CDT) Temp. Dew Point Humidity Pressure Visibility Wind Dir Wind Speed Gust Speed Precip Events Conditions
12:52 AM 53.1 °F 51.1 °F 93% 30.04 in 3.0 mi Calm Calm - N/A   Partly Cloudy
1:01 AM 53.6 °F 53.6 °F 100% 30.05 in 4.0 mi West 5.8 mph - N/A   Mostly Cloudy
1:52 AM 54.0 °F 52.0 °F 93% 30.04 in 10.0 mi WNW 4.6 mph - N/A   Overcast
2:21 AM 53.6 °F 51.8 °F 94% 30.03 in 10.0 mi NW 5.8 mph - N/A   Overcast
2:39 AM 53.6 °F 51.8 °F 94% 30.02 in 10.0 mi WNW 5.8 mph - N/A   Scattered Clouds
3:52 AM 52.0 °F 51.1 °F 97% 30.02 in 3.0 mi NNW 8.1 mph - N/A   Mostly Cloudy
4:29 AM 51.8 °F 51.8 °F 100% 30.02 in 2.5 mi NNW 5.8 mph - N/A   Partly Cloudy
4:50 AM 51.8 °F 50.0 °F 94% 30.02 in 1.8 mi NNW 5.8 mph - N/A   Partly Cloudy
4:52 AM 51.1 °F 50.0 °F 96% 30.03 in 1.8 mi NNW 5.8 mph - N/A   Scattered Clouds
4:59 AM 51.8 °F 50.0 °F 94% 30.02 in 2.0 mi NNW 5.8 mph - N/A   Mostly Cloudy
5:18 AM 51.8 °F 50.0 °F 94% 30.02 in 2.0 mi NNW 5.8 mph - N/A   Scattered Clouds
5:52 AM 51.1 °F 50.0 °F 96% 30.03 in 2.5 mi NNW 4.6 mph - N/A   Partly Cloudy
6:04 AM 51.8 °F 50.0 °F 94% 30.03 in 1.2 mi NNW 5.8 mph - N/A   Partly Cloudy
6:16 AM 51.8 °F 50.0 °F 94% 30.03 in 0.8 mi NNW 5.8 mph - N/A   Mist
6:25 AM 51.8 °F 51.8 °F 100% 30.03 in 0.2 mi North 5.8 mph - N/A Fog Fog
6:42 AM 53.6 °F 51.8 °F 94% 30.03 in 0.2 mi NNW 4.6 mph - N/A Fog Fog
6:52 AM 53.1 °F 52.0 °F 96% 30.04 in 0.2 mi NNW 5.8 mph - N/A Fog Fog
7:16 AM 53.6 °F 53.6 °F 100% 30.03 in 0.2 mi NNW 6.9 mph - 0.01 in Fog Fog
7:52 AM 54.0 °F 53.1 °F 97% 30.04 in 0.2 mi NNW 9.2 mph - 0.01 in Fog Fog
8:23 AM 55.4 °F 53.6 °F 94% 30.04 in 0.2 mi NNW 6.9 mph - N/A Fog Fog
8:36 AM 55.4 °F 53.6 °F 94% 30.05 in 0.5 mi NNW 8.1 mph - N/A Fog Fog
8:49 AM 55.4 °F 55.4 °F 100% 30.04 in 1.8 mi North 9.2 mph - N/A   Overcast
9:11 AM 57.2 °F 55.4 °F 94% 30.04 in 4.0 mi North 9.2 mph - N/A   Scattered Clouds
9:31 AM 57.2 °F 55.4 °F 94% 30.06 in 2.5 mi NNE 15.0 mph - N/A   Mostly Cloudy
9:49 AM 59.0 °F 55.4 °F 88% 30.04 in 3.0 mi NE 12.7 mph - N/A   Scattered Clouds
9:52 AM 59.0 °F 55.9 °F 90% 30.04 in 3.0 mi NE 12.7 mph - N/A   Scattered Clouds
10:52 AM 63.0 °F 55.9 °F 78% 30.05 in 6.0 mi NE 8.1 mph - N/A   Haze
11:52 AM 64.9 °F 53.1 °F 65% 30.03 in 10.0 mi NE 10.4 mph - N/A   Clear
12:52 PM 69.1 °F 52.0 °F 54% 30.01 in 10.0 mi NNE 9.2 mph - N/A   Clear
1:52 PM 72.0 °F 53.1 °F 51% 29.99 in 10.0 mi NE 12.7 mph 16.1 mph N/A   Clear
2:52 PM 72.0 °F 51.1 °F 48% 29.97 in 10.0 mi NE 9.2 mph 18.4 mph N/A   Clear
3:52 PM 73.0 °F 50.0 °F 44% 29.96 in 10.0 mi NE 10.4 mph - N/A   Partly Cloudy
4:52 PM 70.0 °F 48.0 °F 46% 29.96 in 10.0 mi NE 10.4 mph - N/A   Mostly Cloudy
5:52 PM 72.0 °F 50.0 °F 46% 29.96 in 10.0 mi NNE 8.1 mph - N/A   Partly Cloudy
6:52 PM 68.0 °F 51.1 °F 55% 29.96 in 10.0 mi NE 8.1 mph - N/A   Clear
7:52 PM 63.0 °F 50.0 °F 63% 29.98 in 10.0 mi NE 8.1 mph - N/A   Clear
8:52 PM 59.0 °F 46.9 °F 64% 30.01 in 10.0 mi ENE 5.8 mph - N/A   Clear
9:52 PM 57.9 °F 46.9 °F 67% 30.03 in 10.0 mi ESE 5.8 mph - N/A   Clear
10:52 PM 60.1 °F 45.0 °F 57% 30.02 in 10.0 mi SE 4.6 mph - N/A   Clear
11:52 PM 55.9 °F 48.0 °F 75% 30.02 in 10.0 mi Calm Calm - N/A   Clear